Location: �terpigny
(49.8910°N, 2.9249°E)
Time: 17:21:46
(UTC+00:00)

CENTAUR R/B - Pass Details

Date: 24 October 2021
Orbit: 728 x 1459 km, 63.4° (Epoch: 26 November)

Event Time Altitude Azimuth Distance (km) Brightness Sun altitude
Rises 21:40:11 0° 316° (NW) 4,145 6.5 -45.7°
Reaches altitude 10° 21:42:51 10° 314° (NW) 3,266 5.8 -46.0°
Enters shadow 21:46:55 34° 303° (WNW) 2,071 4.4 -46.4°
